Location: Großglattbach
(48.9143°N, 8.8949°E)
Time: 11:56:43
(UTC+00:00)

Daily predictions for brighter satellites

Satellite Brightness Start Highest point End
(mag) Time Altitude Azimuth Time Altitude Azimuth Time Altitude Azimuth
Cosmos 2297 Rocket 3.4 18:48:30 10° NNW 18:53:19 28° NE 18:58:07 10° ESE
Cosmos 2369 Rocket 3.3 18:51:50 10° SW 18:57:21 52° NW 19:02:54 10° NNE
Meteor 1-11 4.3 18:54:35 10° N 19:00:17 76° ENE 19:06:00 10° SSE
BlueWalker 3 3.2 18:58:02 10° S 19:01:01 22° SE 19:04:00 10° E
Terra 3.7 19:02:12 10° E 19:04:58 16° ENE 19:07:45 10° NNE
ATLAS 5 CENTAUR R/B 0.9 19:02:04 10° SW 19:05:24 74° SE 19:09:07 10° NE
PSLV R/B 3.6 19:04:16 10° SSE 19:07:59 73° ENE 19:11:46 10° N
Cosmos 2098 Rocket 2.9 19:03:25 10° S 19:08:09 74° E 19:12:00 10° NNE
CARTOSAT-1 3.6 19:04:28 10° SSE 19:08:41 66° ENE 19:12:57 10° N
Cosmos 1455 3.7 19:07:07 10° SW 19:10:28 38° WNW 19:13:51 10° N
Sich 1 Rocket 4.4 19:06:43 10° SSE 19:10:35 31° E 19:14:31 10° NNE
Okean 1 Rocket 4.5 19:07:26 10° SE 19:10:42 20° E 19:13:59 10° NE
Cosmos 1932 4.5 19:09:11 10° NW 19:15:28 79° NE 19:21:31 11° SE
Cosmos 1975 Rocket 3.7 19:11:26 10° NNW 19:15:41 58° W 19:19:55 10° S
Okean-O 3.0 19:11:33 10° SE 19:15:45 46° ENE 19:19:59 10° N
CZ-4B R/B 3.6 19:12:17 10° S 19:17:53 68° WSW 19:23:26 10° NNW
Cosmos 2263 Rocket 4.3 19:16:27 10° N 19:19:21 14° NNE 19:22:14 10° ENE
Ariane Rocket 4.5 19:16:22 11° ESE 19:19:55 21° ENE 19:23:36 10° NNE
CZ-4C R/B 3.8 19:18:21 10° NE 19:21:25 30° E 19:24:26 10° SSE
Nadezhda 3 Rocket 4.0 19:16:25 10° S 19:22:28 63° E 19:28:35 10° NNE
Cosmos 1821 Rocket 4.1 19:17:02 10° N 19:23:14 81° W 19:29:19 10° S
SL-27 R/B 3.4 19:21:24 10° NW 19:24:06 36° WSW 19:26:46 10° S
Genesis I 3.3 19:20:37 10° NNW 19:24:11 54° NE 19:26:55 16° ESE
USA 186 2.9 19:21:33 10° S 19:24:27 41° W 19:27:19 10° NNW
BREEZE-M R/B 1.6 19:23:20 10° W 19:25:59 89° NNE 19:27:40 18° E
USA 267 3.4 19:20:02 10° NE 19:26:37 81° NNW 19:33:09 10° WSW
Okean O Rocket 1.9 19:26:12 10° S 19:30:32 70° WSW 19:34:56 10° NNW
Cosmos 1486 Rocket 4.3 19:29:57 10° NNW 19:35:07 66° WSW 19:40:15 10° S
CZ-4 R/B 3.5 19:32:32 10° SSW 19:35:47 25° W 19:39:02 10° NW
Cosmos 1536 Rocket 3.5 19:37:23 10° N 19:41:50 75° E 19:45:49 13° SSE
SJ 16-02 4.1 19:40:30 10° WNW 19:42:48 14° W 19:45:06 10° SW
Resurs 01 Rocket 2.5 19:41:05 10° S 19:45:21 49° W 19:49:40 10° NNW
IRS-1C Rocket 4.2 19:42:38 16° SE 19:46:51 60° ENE 19:52:04 10° N
MOS 1 4.3 19:43:34 12° SSE 19:48:58 81° ENE 19:54:42 10° NNW
CENTAUR R/B 4.0 19:42:42 10° NW 19:49:58 41° NNE 19:57:39 12° E
NOSS 3-1 (A) 3.1 19:46:56 10° SW 19:51:55 88° SE 19:58:01 10° NE
ERS-1 Rocket 3.4 19:51:26 21° SE 19:54:29 46° ENE 19:59:16 10° N
SPOT 3 Rocket 4.3 19:55:09 21° ESE 19:57:56 37° ENE 20:02:40 10° N
Tiangong 0.0 19:56:20 10° SSW 19:57:17 14° S 19:57:17 14° S
Cosmos 1934 Rocket 4.0 19:54:31 10° N 20:00:44 87° E 20:06:25 13° S
USA 229 DEB 3.7 19:55:07 10° S 20:00:52 45° ESE 20:07:11 10° NE
USA 229 3.7 19:55:13 10° S 20:00:59 44° ESE 20:07:16 10° NE
Cosmos 2151 Rocket 3.7 19:58:19 10° SSW 20:02:42 78° W 20:07:11 10° N
Cosmos 1339 Rocket 4.4 19:56:38 10° S 20:02:46 78° E 20:08:51 10° NNE
USA 234 4.0 19:58:35 15° SSE 20:03:46 44° SW 20:09:59 10° WNW
USA 281 3.5 19:59:02 12° SSE 20:05:10 65° WSW 20:11:44 10° NNW
ATLAS CENTAUR R/B 2.6 20:05:08 10° NNW 20:08:24 28° NE 20:09:58 21° ENE
Cosmos 2227 Rocket 2.7 20:03:53 10° NNW 20:09:24 48° NE 20:12:21 26° ESE
Cosmos 1980 Rocket 3.9 20:13:32 14° E 20:13:32 14° E 20:15:30 10° ENE
NOSS 3-1 (C) 4.5 20:07:49 10° WSW 20:12:45 43° NW 20:18:46 10° NE
Iridium 2 3.5 20:10:06 10° NNW 20:13:01 58° W 20:14:17 29° SSW
Cosmos 1892 Rocket 3.8 20:12:34 10° N 20:16:48 50° ENE 20:18:10 36° SE
SL-4 R/B 1.6 20:13:20 10° WNW 20:16:56 76° NNE 20:17:57 43° E
Cosmos 371 Rocket 4.1 20:13:03 10° NW 20:17:37 45° WSW 20:21:07 16° S
Landsat 4 3.4 20:17:01 38° SSE 20:18:16 87° WSW 20:21:49 10° NNW
MetOp-B 4.3 20:15:38 19° S 20:19:35 74° WSW 20:24:59 10° NNW
Cosmos 1697 Rocket 3.3 20:18:57 29° SE 20:20:42 36° ESE 20:25:49 10° NE
Cosmos 304 Rocket 4.4 20:16:51 10° NNW 20:21:29 51° WSW 20:24:31 20° S
Cosmos 2360 4.4 20:17:18 15° S 20:21:48 48° ESE 20:27:15 10° NE
Okean 2 Rocket 4.0 20:20:28 10° SSW 20:24:51 51° WNW 20:29:15 10° N
COSMOS 2455 2.8 20:18:51 10° NW 20:24:56 86° NE 20:27:59 31° SE
ATLAS 3B R/B 3.3 20:18:54 10° SW 20:26:01 65° NW 20:33:40 10° NE
SPOT 5 3.4 20:26:04 20° S 20:29:49 64° WSW 20:35:02 10° NNW
NOSS 8 (H) 4.4 20:27:53 10° NW 20:30:59 77° NE 20:31:30 60° ESE
MetOp-A 4.1 20:30:40 33° E 20:31:00 34° ENE 20:34:28 10° N
NOSS 8 (E) 4.4 20:28:18 10° NW 20:31:26 77° SW 20:31:59 59° SSE
Cosmos 405 Rocket 2.6 20:33:26 56° ESE 20:33:38 57° E 20:37:18 10° NNE
Cosmos 1898 Rocket 4.1 20:29:21 10° NNW 20:34:24 44° ENE 20:36:04 34° ESE
Cosmos 2297 Rocket 2.4 20:32:13 10° NNW 20:37:49 65° WSW 20:40:35 30° S
CZ-4C R/B 3.0 20:31:10 10° NW 20:38:09 78° NE 20:42:37 31° SE
Spot 2 Rocket 3.4 20:36:25 37° SSE 20:38:30 84° ENE 20:43:34 10° NNW
BlueWalker 3 1.8 20:35:03 10° WSW 20:38:53 87° NNW 20:40:36 31° ENE
USA 81 4.4 20:38:46 39° SE 20:40:00 47° E 20:45:02 10° NNE
ARIANE 5 R/B 4.4 20:39:49 18° ENE 20:40:29 19° ENE 20:43:35 10° NNE
Terra 1.8 20:40:08 38° S 20:41:57 83° WSW 20:46:43 10° NNW
Cosmos 1656 3.9 20:38:19 10° SW 20:43:52 71° WNW 20:49:23 10° NNE
Cosmos 1455 Rocket 2.9 20:46:45 51° S 20:47:49 78° E 20:52:14 10° NNE
Okean 1 Rocket 4.0 20:44:00 10° SSW 20:48:12 46° WNW 20:52:32 10° N
Spot 1 4.2 20:43:50 10° NNE 20:48:27 60° ESE 20:49:02 55° SE
Iridium 4 Rocket 4.3 20:44:01 12° SSW 20:49:02 56° W 20:54:48 10° N
USA 245 4.2 20:46:55 30° S 20:49:21 60° WSW 20:53:41 10° NNW
ATLAS 5 CENTAUR R/B 3.9 20:47:08 10° WNW 20:49:49 20° NNW 20:52:47 10° NNE
Cosmos 332 Rocket 4.1 20:45:25 10° NNW 20:50:13 60° WSW 20:51:53 38° S
Cosmos 1459 Rocket 4.4 20:44:33 10° N 20:50:23 46° ENE 20:52:04 37° ESE
Cosmos 2219 3.4 20:47:16 10° NNW 20:52:52 58° ENE 20:54:33 42° ESE
Ariane Rocket 3.2 20:56:30 38° S 20:58:22 66° WSW 21:03:25 10° NNW
Cosmos 1437 Rocket 2.9 20:56:02 10° NNW 20:59:56 64° W 21:00:22 58° SW
Cosmos 1763 Rocket 3.4 20:57:45 25° SSW 21:00:45 85° WNW 21:05:56 10° NNE
Cosmos 2263 Rocket 2.6 20:59:15 10° NNW 21:04:42 50° NE 21:06:06 41° E
Cosmos 44 3.7 21:00:30 10° SW 21:05:53 70° NW 21:11:13 10° NE
USA 267 4.2 21:03:02 10° ENE 21:09:15 47° N 21:15:28 10° W
ARGOS Delta rocket 4.2 21:08:36 46° S 21:10:14 77° W 21:15:44 10° NNW
Cosmos 990 Rocket 4.5 21:05:25 10° NNW 21:10:26 51° WSW 21:11:52 39° SSW
Cosmos 2082 4.0 21:05:39 10° NNW 21:11:14 54° ENE 21:12:29 45° E
Cosmos 2173 Rocket 4.0 21:08:54 10° N 21:15:19 73° E 21:17:01 50° SSE
NOSS 3-2 (A) 4.2 21:09:03 10° NW 21:16:08 62° NE 21:19:58 34° ESE
Aureole 1 Rocket 3.8 21:13:59 10° NW 21:15:56 32° WNW 21:15:56 32° WNW
Meteor 2-3 Rocket 3.8 21:13:09 10° N 21:18:47 60° ENE 21:19:41 53° ESE
Cosmos 540 Rocket 3.4 21:18:45 42° SSW 21:20:29 80° WNW 21:25:38 10° NNE
Cosmos 1606 4.3 21:23:39 25° NE 21:23:39 25° NE 21:25:27 10° NNE
MOS 1 Rocket 3.3 21:25:22 58° WSW 21:25:35 59° W 21:29:56 10° NNW
Cosmos 2058 3.3 21:22:37 10° NNW 21:26:27 55° W 21:26:27 55° W
Meteor 2-15 4.4 21:22:40 10° N 21:28:50 74° ENE 21:29:59 58° SE
Cosmos 1626 Rocket 3.5 21:24:50 10° N 21:29:06 82° NNW 21:29:06 82° NNW
Cosmos 372 Rocket 3.8 21:26:24 10° NNW 21:31:40 83° WSW 21:32:09 73° S
Cosmos 468 Rocket 4.2 21:31:31 39° SW 21:33:22 68° WNW 21:38:36 10° NNE
Cosmos 1864 Rocket 4.4 21:28:34 10° N 21:34:44 68° ENE 21:35:41 59° SE
Cosmos 1802 Rocket 3.9 21:31:30 10° N 21:37:48 79° E 21:38:59 61° SSE
SL-16 R/B 4.2 21:41:08 15° ENE 21:41:08 15° ENE 21:42:48 10° ENE
CENTAUR R/B 3.2 21:33:23 10° NW 21:41:36 87° SW 21:44:48 47° SE
Cosmos 1869 4.3 21:43:56 41° N 21:43:56 41° N 21:46:33 10° N
Landsat 5 4.3 21:38:42 10° N 21:42:46 45° WNW 21:43:13 43° W
Cosmos 841 Rocket 3.4 21:43:35 73° ENE 21:43:35 73° ENE 21:48:25 10° NNE
Cosmos 2016 Rocket 3.8 21:38:57 10° N 21:45:06 76° E 21:45:55 65° SE
ATLAS CENTAUR R/B 2.7 21:42:41 10° NW 21:45:04 31° WNW 21:45:04 31° WNW
Intercosmos 25 4.2 21:44:07 10° NNW 21:48:13 46° WNW 21:48:13 46° WNW
Cosmos 1844 Rocket 4.0 21:44:10 10° NNW 21:49:01 29° NE 21:50:30 25° ENE
Cosmos 1544 Rocket 3.9 21:49:27 61° NW 21:49:27 61° NW 21:53:23 10° N
USA 229 DEB 4.4 21:45:39 10° WSW 21:51:45 51° NW 21:58:31 10° NE
USA 229 4.3 21:45:44 10° WSW 21:51:50 51° NW 21:58:37 10° NE
Cosmos 2100 Rocket 4.3 21:46:29 10° NNW 21:52:44 61° W 21:54:16 48° SW
H-2A R/B 3.6 21:54:16 36° N 21:54:16 36° N 21:56:43 10° N
Cosmos 2227 Rocket 3.3 21:48:16 10° NW 21:53:15 32° WSW 21:54:10 31° WSW
SL-4 R/B 4.4 21:52:26 10° W 21:52:47 12° W 21:52:47 12° W
Cosmos 1980 Rocket 2.0 21:55:14 81° SSW 21:55:32 87° ESE 22:01:14 10° NNE
Cosmos 967 Rocket 4.4 21:53:21 10° NW 21:59:52 85° NE 22:00:44 69° SE
Cosmos 1937 Rocket 3.9 21:58:37 10° NNW 22:03:46 51° WSW 22:03:47 51° WSW
Cosmos 1697 Rocket 3.7 22:00:32 17° WSW 22:04:34 45° NW 22:10:01 10° NNE
Okean 1-7 Rocket 4.2 22:00:14 10° NNW 22:04:09 55° WNW 22:04:09 55° WNW
Cosmos 2123 Rocket 4.0 22:05:46 65° SSW 22:06:46 82° W 22:13:09 10° N
Cosmos 2151 4.5 22:03:52 10° N 22:06:35 30° NE 22:06:35 30° NE
Meteor 1-27 4.1 22:10:41 74° ENE 22:10:41 74° ENE 22:15:59 10° NNE
CZ-2C R/B 4.1 22:06:38 10° NNE 22:10:46 66° N 22:10:46 66° N
Cosmos 1602 Rocket 4.4 22:07:50 10° NNW 22:11:18 46° NW 22:11:18 46° NW
Cosmos 1758 Rocket 4.5 22:08:27 10° NNW 22:12:06 44° WNW 22:12:06 44° WNW
Cosmos 2228 4.0 22:14:50 44° NW 22:14:50 44° NW 22:18:09 10° N
ARIANE 5 R/B 3.3 22:17:17 51° NW 22:17:17 51° NW 22:20:54 10° NNW
BlueWalker 3 4.2 22:13:45 10° WNW 22:15:06 20° WNW 22:15:06 20° WNW
Terra 4.4 22:18:56 10° WSW 22:20:18 11° W 22:21:40 10° WNW
CZ-4C R/B 3.9 22:19:57 10° NW 22:26:30 34° WSW 22:27:43 33° SW
Cosmos 2227 4.2 22:22:06 10° NNW 22:27:45 79° NE 22:27:45 79° NE
Cosmos 2369 3.8 22:27:49 67° W 22:28:12 70° WNW 22:33:52 10° NNE
Lacrosse 4 Rocket 3.5 22:33:41 20° NE 22:33:41 20° NE 22:35:00 10° NE
NOSS 3-2 (C) 4.0 22:25:03 10° NW 22:32:23 81° NE 22:34:32 54° SE
H-2A R/B 4.2 22:29:16 10° NE 22:30:48 19° NE 22:30:48 19° NE
Cosmos 1725 Rocket 4.4 22:28:35 10° NNW 22:34:32 50° W 22:35:10 48° WSW
ALOS 2 3.6 22:35:59 45° N 22:35:59 45° N 22:39:09 10° N
Cosmos 2233 Rocket 3.9 22:28:53 10° NNW 22:35:02 72° W 22:35:19 71° WSW
Cosmos 2061 Rocket 4.2 22:35:09 10° NNW 22:41:28 59° W 22:42:00 57° WSW
Cosmos 1447 Rocket 4.3 22:42:34 81° E 22:42:34 81° E 22:48:43 10° N
Cosmos 1814 Rocket 4.3 22:45:04 60° NNE 22:45:04 60° NNE 22:49:18 10° NNE
Cosmos 1464 Rocket 4.4 22:38:21 10° N 22:44:33 50° ENE 22:44:59 49° E
Cosmos 2263 Rocket 3.4 22:43:33 10° NW 22:47:47 30° W 22:47:47 30° W
Cosmos 2360 Rocket 3.6 22:51:06 27° ENE 22:51:06 27° ENE 22:54:23 10° NE
USA 267 4.1 22:45:23 10° E 22:51:36 47° N 22:57:48 10° WNW
SL-19 R/B 4.3 22:46:14 10° NNE 22:51:47 85° N 22:51:47 85° N
Cosmos 909 Rocket 4.4 22:55:34 66° SSE 22:56:23 71° ESE 23:05:30 10° NE
Cosmos 1891 Rocket 4.4 22:53:02 10° N 22:59:16 83° E 22:59:17 83° E
Cosmos 1513 Rocket 4.4 22:53:33 10° N 22:59:38 78° ENE 22:59:38 78° ENE
Cosmos 2333 Rocket 3.5 23:03:47 29° ENE 23:03:47 29° ENE 23:07:18 10° NE
Cosmos 2322 Rocket 3.0 23:03:59 41° ENE 23:03:59 41° ENE 23:08:04 10° NE
Lacrosse 5 3.7 23:05:57 21° ENE 23:05:57 21° ENE 23:07:42 10° ENE
Cosmos 2219 Rocket 4.0 23:05:42 19° E 23:05:42 19° E 23:08:21 10° NE
Cosmos 2034 Rocket 4.4 23:00:41 10° N 23:06:41 49° ENE 23:07:00 48° E
NOSS 3-2 (A) 4.5 22:59:58 10° NW 23:07:05 45° WSW 23:07:20 45° SW
Cosmos 1809 Rocket 4.4 23:21:05 87° NNW 23:21:05 87° NNW 23:27:14 10° N
SL-16 R/B 2.3 23:22:57 73° N 23:22:57 73° N 23:28:10 10° NNE
Cosmos 1844 3.9 23:18:24 10° NNW 23:23:28 68° NW 23:23:28 68° NW
CENTAUR R/B 4.3 23:24:51 10° WNW 23:31:45 28° WSW 23:31:56 28° WSW
USA 238 DEB 3.8 23:24:48 10° NW 23:32:09 81° SW 23:32:58 72° S
USA 238 3.8 23:24:54 10° NW 23:32:15 82° SW 23:33:05 72° SSE
Cosmos 1125 Rocket 4.3 23:27:58 10° NNW 23:31:49 45° NW 23:31:49 45° NW
Cosmos 1844 Rocket 3.2 23:27:46 10° NW 23:32:08 50° WNW 23:32:08 50° WNW
Cosmos 1980 Rocket 4.2 23:36:55 14° W 23:40:19 22° NW 23:44:40 10° N
Meteor 2-14 Rocket 4.5 23:41:04 70° WNW 23:41:04 70° WNW 23:47:14 10° N
Cosmos 2278 4.4 23:44:40 43° WNW 23:45:13 44° NW 23:50:40 10° NNE
Meteor 2-2 Rocket 4.4 23:48:58 71° ENE 23:48:58 71° ENE 23:54:37 10° NNE
Timation 2 Rocket 4.0 23:42:05 10° NNW 23:48:19 69° W 23:48:19 69° W
Cosmos 1816 Rocket 4.3 23:51:35 88° NNW 23:51:35 88° NNW 23:57:42 10° N
